KC5L-11 Weather Reports


time (UTC)temp
F
wind
direction
speed
knots
gust
knots
rain 1hr
in
rain 24hr
in
rain mn
in
humidity
%
barometer
mb
20260506200435 88 281 2.6 0.0 0.00 0.00 0.00 1000.3
20260506195258 88 259 2.6 0.0 0.00 0.00 0.00 1000.5
20260506194122 89 291 5.2 0.0 0.00 0.00 0.00 1000.7
20260506192944 88 226 2.6 0.0 0.00 0.00 0.00 1000.7
20260506191807 89 229 3.5 0.0 0.00 0.00 0.00 1001.0
20260506190631 88 285 0.0 0.0 0.00 0.00 0.00 1001.0
20260506185454 86 308 2.6 0.0 0.00 0.00 0.00 1001.1
20260506184317 86 332 0.0 0.0 0.00 0.00 0.00 1001.3
20260506183140 85 288 3.5 0.0 0.00 0.00 0.00 1001.3
20260506182003 85 238 0.0 0.0 0.00 0.00 0.00 1001.4
20260506175649 86 236 3.5 0.0 0.00 0.00 0.00 1001.7
20260506174513 87 235 5.2 0.0 0.00 0.00 0.00 1001.8
20260506173335 85 249 4.3 0.0 0.00 0.00 0.00 1001.8
20260506172158 85 180 3.5 0.0 0.00 0.00 0.00 1001.8
20260506171022 85 217 0.0 0.0 0.00 0.00 0.00 1001.8
20260506165844 85 219 2.6 0.0 0.00 0.00 0.00 1001.8
20260506164708 84 307 0.0 0.0 0.00 0.00 0.00 1001.7
20260506163531 84 284 0.0 0.0 0.00 0.00 0.00 1001.7
20260506161217 84 42 0.0 0.0 0.00 0.00 0.00 1001.6
20260506160040 82 42 0.0 0.0 0.00 0.00 0.00 1001.4
20260506154903 82 56 2.6 0.0 0.00 0.00 0.00 1001.3
20260506153726 82 41 0.0 0.0 0.00 0.00 0.00 1001.1
20260506152549 80 39 0.0 0.0 0.00 0.00 0.00 1001.0
20260506151412 80 35 0.0 0.0 0.00 0.00 0.00 1000.8
20260506150235 80 325 2.6 0.0 0.00 0.00 0.00 1000.6
20260506145058 79 325 5.2 0.0 0.00 0.00 0.00 1000.3
20260506143921 79 11 0.0 0.0 0.00 0.00 0.00 1000.2
20260506142744 78 28 3.5 0.0 0.00 0.00 0.00 1000.0
20260506141607 77 3 2.6 0.0 0.00 0.00 0.00 1000.0
20260506140430 77 4 7.0 0.0 0.00 0.00 0.00 999.9
20260506135253 77 17 0.0 0.0 0.00 0.00 0.00 999.8
20260506134116 76 11 3.5 0.0 0.00 0.00 0.00 999.8
20260506132939 76 35 0.0 0.0 0.00 0.00 0.00 999.8
20260506131801 76 35 4.3 0.0 0.00 0.00 0.00 999.7
20260506130626 76 359 0.0 0.0 0.00 0.00 0.00 1009.3
20260506125448 75 342 3.5 0.0 0.00 0.00 0.00 999.6
20260506124310 75 349 2.6 0.0 0.00 0.00 0.00 999.6
20260506123134 74 31 0.0 0.0 0.00 0.00 0.00 999.7
20260506121956 74 31 0.0 0.0 0.00 0.00 0.00 999.7
20260506120820 74 31 0.0 0.0 0.00 0.00 0.00 999.6
20260506115642 74 31 0.0 0.0 0.00 0.00 0.00 999.6
20260506114505 74 31 0.0 0.0 0.00 0.00 0.00 999.6
20260506113330 74 31 0.0 0.0 0.00 0.00 0.00 999.4
20260506112152 74 31 0.0 0.0 0.00 0.00 0.00 999.4
20260506111015 74 31 0.0 0.0 0.00 0.00 0.00 999.4
20260506105838 74 340 0.0 0.0 0.00 0.00 0.00 999.4
20260506104701 75 25 0.0 0.0 0.00 0.00 0.00 999.2
20260506102348 24 354 5.2 0.0 0.00 0.00 0.00 999.3
20260506101210 76 359 2.6 0.0 0.00 0.00 0.00 999.3
20260506100032 76 345 3.5 0.0 0.00 0.00 0.00 999.3
20260506094855 76 311 5.2 0.0 0.00 0.00 0.00 999.2
20260506092542 76 359 6.1 0.0 0.00 0.00 0.00 999.3
20260506091406 76 24 2.6 0.0 0.00 0.00 0.00 999.5
20260506090228 76 32 1.7 0.0 0.00 0.00 0.00 999.5
20260506085051 76 25 4.3 0.0 0.00 0.00 0.00 999.5
20260506083915 77 44 3.5 0.0 0.00 0.00 0.00 999.4
20260506082738 77 13 4.3 0.0 0.00 0.00 0.00 999.5
20260506081601 77 346 4.3 0.0 0.00 0.00 0.00 999.5
20260506080423 77 359 5.2 0.0 0.00 0.00 0.00 999.6
20260506072933 77 24 3.5 0.0 0.00 0.00 0.00 999.4
20260506071756 77 24 2.6 0.0 0.00 0.00 0.00 999.5
20260506070618 77 34 3.5 0.0 0.00 0.00 0.00 999.5
20260506061950 77 4 7.8 0.0 0.00 0.00 0.00 999.8
20260506060814 77 30 5.2 0.0 0.00 0.00 0.00 1000.0
20260506051008 77 38 4.3 0.0 0.00 0.00 0.00 999.9
20260506044655 77 38 5.2 0.0 0.00 0.00 0.00 1000.0
20260506043517 77 60 6.1 0.0 0.00 0.00 0.00 999.8
20260506042341 78 343 8.7 0.0 0.00 0.00 0.00 999.7
20260506040027 78 311 4.3 0.0 0.00 0.00 0.00 999.7
20260506034850 78 359 0.0 0.0 0.00 0.00 0.00 999.6
20260506033713 78 319 6.1 0.0 0.00 0.00 0.00 999.3
20260506032536 78 332 6.1 0.0 0.00 0.00 0.00 999.1
20260506031359 78 18 1.7 0.0 0.00 0.00 0.00 998.9
20260506030222 78 359 7.0 0.0 0.00 0.00 0.00 998.7
20260506025045 79 352 7.8 0.0 0.00 0.00 0.00 998.4
20260506023908 79 329 7.0 0.0 0.00 0.00 0.00 998.2
20260506022731 79 359 10.4 0.0 0.00 0.00 0.00 998.0
20260506021554 80 68 6.1 0.0 0.00 0.00 0.00 997.8
20260506020419 80 359 5.2 0.0 0.00 0.00 0.00 997.8
20260506015240 81 359 7.0 0.0 0.00 0.00 0.00 997.6
20260506014103 81 8 10.4 0.0 0.00 0.00 0.00 997.4
20260506012927 82 319 0.0 0.0 0.00 0.00 0.00 997.3
20260506011748 82 359 6.1 0.0 0.00 0.00 0.00 997.1
20260506010611 83 0 10.4 0.0 0.00 0.00 0.00 997.0
20260506005434 84 20 7.0 0.0 0.00 0.00 0.00 996.9
20260506004258 85 30 7.8 0.0 0.00 0.00 0.00 996.8
20260506003120 86 352 7.8 0.0 0.00 0.00 0.00 996.5
20260506001943 87 354 10.4 0.0 0.00 0.00 0.00 996.7
20260506000806 88 6 5.2 0.0 0.00 0.00 0.00 996.5
20260505235629 88 4 10.4 0.0 0.00 0.00 0.00 996.4
20260505234452 89 39 3.5 0.0 0.00 0.00 0.00 996.2
20260505233315 90 15 6.1 0.0 0.00 0.00 0.00 996.1
20260505232138 91 41 6.1 0.0 0.00 0.00 0.00 996.1
20260505231002 92 23 7.0 0.0 0.00 0.00 0.00 996.1
20260505225825 92 52 7.8 0.0 0.00 0.00 0.00 996.1
20260505224648 93 359 7.0 0.0 0.00 0.00 0.00 996.1
20260505223511 93 10 5.2 0.0 0.00 0.00 0.00 996.3
20260505222334 93 1 9.6 0.0 0.00 0.00 0.00 996.3
20260505221157 94 6 5.2 0.0 0.00 0.00 0.00 996.4
20260505220020 94 14 7.8 0.0 0.00 0.00 0.00 996.6
20260505214843 92 23 3.5 0.0 0.00 0.00 0.00 996.8
20260505213706 94 1 2.6 0.0 0.00 0.00 0.00 997.0
20260505212529 94 7 3.5 0.0 0.00 0.00 0.00 997.1
20260505211352 94 335 7.8 0.0 0.00 0.00 0.00 997.2
20260505210215 92 338 8.7 0.0 0.00 0.00 0.00 997.5
20260505205038 93 359 7.8 0.0 0.00 0.00 0.00 997.7
20260505203901 93 339 6.1 0.0 0.00 0.00 0.00 997.8
20260505202724 93 37 3.5 0.0 0.00 0.00 0.00 997.9